Hourly Data Report for October 12, 2016

All times are specified in Local Standard Time (LST). Add 1 hour to adjust for Daylight Saving Time where and when it is observed.

TORONTO INTL A
ONTARIO

43°40'36.000" N
79°37'50.000" W
173.40 m
6158731
71624
YYZ

Download Data

Hourly Data (October 2016)
Hourly Data Report for October 12, 2016
Temp Definition
°C
Dew Point Temp Definition
°C
Rel Hum Definition
%
Wind Dir Definition
10's deg

Wind Spd Definition
km/h
Visibility Definition
km
Stn Press Definition
kPa
Hmdx Definition


Wind Chill Definition


Weather Definition


TIME
00:00 Legend Double Dagger 12.4 8.3 76 13 4 24.1 100.19     LegendNANA
01:00 Legend Double Dagger 11.6 8.5 81 36 3 24.1 100.15     Mostly Cloudy
02:00 Legend Double Dagger 11.1 8.2 82 36 3 24.1 100.13     LegendNANA
03:00 Legend Double Dagger 12.3 8.2 76 16 6 24.1 100.08     LegendNANA
04:00 Legend Double Dagger 11.3 7.8 79 36 3 24.1 100.10     Mainly Clear
05:00 Legend Double Dagger 10.4 7.5 82 36 2 24.1 100.07     LegendNANA
06:00 Legend Double Dagger 10.9 8.2 83 17 5 24.1 100.06     LegendNANA
07:00 Legend Double Dagger 12.0 9.1 82 17 4 24.1 100.05     Mainly Clear
08:00 Legend Double Dagger 13.8 10.3 79 18 5 24.1 100.05     LegendNANA
09:00 Legend Double Dagger 16.0 11.8 76 16 12 24.1 100.02     LegendNANA
10:00 Legend Double Dagger 18.2 12.5 69 20 14 24.1 99.94     Clear
11:00 Legend Double Dagger 18.8 12.9 68 17 15 24.1 99.84     LegendNANA
12:00 Legend Double Dagger 20.0 13.1 64 16 18 24.1 99.75     LegendNANA
13:00 Legend Double Dagger 20.9 13.2 61 16 22 24.1 99.67     Mainly Clear
14:00 Legend Double Dagger 22.0 13.0 56 15 23 24.1 99.59 25   LegendNANA
15:00 Legend Double Dagger 21.6 12.3 55 17 18 24.1 99.51     LegendNANA
16:00 Legend Double Dagger 22.0 10.0 46 19 19 24.1 99.50     Mostly Cloudy
17:00 Legend Double Dagger 21.5 10.5 49 17 13 24.1 99.46     LegendNANA
18:00 Legend Double Dagger 20.5 10.4 52 18 10 24.1 99.40     LegendNANA
19:00 Legend Double Dagger 19.5 11.9 61 15 12 24.1 99.30     Mostly Cloudy
20:00 Legend Double Dagger 19.0 12.4 65 17 14 24.1 99.28     LegendNANA
21:00 Legend Double Dagger 19.0 11.7 62 18 13 24.1 99.21     LegendNANA
22:00 Legend Double Dagger 19.3 11.4 60 18 18 24.1 99.16     Mostly Cloudy
23:00 Legend Double Dagger 19.8 10.6 55 19 20 24.1 99.07     LegendNANA

Notes on Data Quality.

Legend

  • E = Estimated
  • M = Missing
  • NA = Not Available
  • ‡ = Partner data that is not subject to review by the National Climate Archives
Date modified: